Tracking 29030 objects as of 25-Jun-2024
HD Live streaming from Space Station
objects crossing your sky now

ONEWEB-0402

Track ONEWEB-0402 now!
10-day predictions
ONEWEB-0402 is classified as:


NORAD ID: 50482
Int'l Code: 2021-132P
Perigee: 1,194.9 km
Apogee: 1,198.9 km
Inclination: 87.9 °
Period: 109.2 minutes
Semi major axis: 7567 km
RCS: Unknown
Launch date: December 27, 2021
Source: United Kingdom (UK)
Launch site: TYURATAM MISSILE AND SPACE COMPLEX (TTMTR)
Your satellite tracking list
Your tracking list is empty




NASA's NSSDC Master Catalog

Two Line Element Set (TLE):
1 50482U 21132P   24177.20409658  .00000069  00000-0  14286-3 0  9992
2 50482  87.9143 119.1794 0002670  78.4498 281.6934 13.18687045127769
Source of the keplerian elements: AFSPC